Zurück zum Katalog

COSMOS 1191 DEB

AktivHEO
NORAD 12817·DEBRIS·🇷🇺 Russia

Gestartet Jul 2, 1980 von Plesetsk Cosmodrome

Loading…

Nächste Überflüge (nächste 24 Stunden)

TLE

AlterndSource: Space-Track

Epoche: Sep 1, 2026, 14:55 UTC

1 12817U 80057E   26244.62210607 -.00000662  00000-0  00000-0 0  9996
2 12817  63.8779 356.5709 7185233  33.3791 355.8572  1.99851641250737

Verfolge COSMOS 1191 DEB in Echtzeit mit AllMySat

Download on the App Store